Weather History for Catania, Italy

Change the Weather History Date:

Wednesday, November 28, 2012

  Actual Average Record
Temperature  
Mean Temperature 67 °F -  
Max Temperature 75 °F 62 °F 75 °F (2012)
Min Temperature 57 °F 44 °F 33 °F (2013)
Cooling Degree Days 2    
Growing Degree Days 17 (Base 50)    
Moisture  
Dew Point 53 °F    
Average Humidity 65    
Maximum Humidity 88    
Minimum Humidity 44    
Precipitation  
Precipitation 0.00 in 0.11 in - ()
Sea Level Pressure  
Sea Level Pressure 29.63 in    
Wind  
Wind Speed 9 mph ()    
Max Wind Speed 23 mph    
Max Gust Speed 37 mph    
Visibility 5.3 miles    
Events Rain    
Averages and records for this station are not official NWS values.
T = Trace of Precipitation, MM = Missing Value Source: Averaged Metar Reports

Daily Weather History Graph

Daily Weather History Graph

Search for Another Location

Airport:

Trip Planner

Search our weather history database for the weather conditions in past years. The results will help you decide how hot, cold, wet, or windy it might be!

Date:

Astronomy

Nov. 28, 2012 Rise Set
Actual Time 6:52 AM CET 4:42 PM CET
Civil Twilight 6:24 AM CET 5:11 PM CET
Nautical Twilight 5:52 AM CET 5:43 PM CET
Astronomical Twilight 5:20 AM CET 6:14 PM CET
Moon 4:44 PM CET (11/28) 6:35 AM CET (11/28)
Length of Visible Light 10h 46m
Length of Day
9h 49m
Full, 100% of the Moon is Illuminated
Nov 28
Full
Nov 28
Full
Dec 6
Last Quarter
Dec 13
New
Dec 20
First Quarter

Hourly Weather History & Observations

Time (CET) Temp. Dew Point Humidity Pressure Visibility Wind Dir Wind Speed Gust Speed Precip Events Conditions
12:20 AM 62.6 °F 59.0 °F 88% 29.83 in 3.7 mi NE 5.8 mph - N/A   Partly Cloudy
12:50 AM 62.6 °F 59.0 °F 88% 29.83 in 3.7 mi ENE 4.6 mph - N/A   Partly Cloudy
1:20 AM 62.6 °F 59.0 °F 88% 29.80 in 3.7 mi East 4.6 mph - N/A   Partly Cloudy
1:50 AM 64.4 °F 59.0 °F 83% 29.80 in 3.7 mi East 6.9 mph - N/A   Partly Cloudy
2:20 AM 64.4 °F 59.0 °F 83% 29.80 in 3.7 mi East 5.8 mph - N/A   Partly Cloudy
2:50 AM 66.2 °F 60.8 °F 83% 29.77 in 3.7 mi East 4.6 mph - N/A   Partly Cloudy
3:20 AM 66.2 °F 60.8 °F 83% 29.74 in 3.7 mi East 6.9 mph - N/A   Scattered Clouds
3:50 AM 66.2 °F 60.8 °F 83% 29.71 in 3.7 mi ESE 5.8 mph - N/A   Scattered Clouds
4:20 AM 66.2 °F 59.0 °F 78% 29.71 in 3.7 mi ESE 10.4 mph - N/A   Scattered Clouds
4:50 AM 66.2 °F 60.8 °F 83% 29.68 in 3.7 mi ESE 9.2 mph - N/A   Scattered Clouds
5:20 AM 66.2 °F 60.8 °F 83% 29.68 in 3.7 mi ESE 9.2 mph - N/A   Scattered Clouds
5:50 AM 66.2 °F 60.8 °F 83% 29.68 in 3.7 mi ESE 5.8 mph - N/A   Scattered Clouds
6:20 AM 66.2 °F 59.0 °F 78% 29.65 in 3.7 mi East 5.8 mph - N/A   Scattered Clouds
6:50 AM 64.4 °F 59.0 °F 83% 29.65 in 5.0 mi East 3.5 mph - N/A   Partly Cloudy
7:20 AM 66.2 °F 59.0 °F 78% 29.62 in 5.0 mi SSW 4.6 mph - N/A   Partly Cloudy
7:50 AM 68.0 °F 57.2 °F 68% 29.62 in 5.0 mi South 8.1 mph - N/A   Partly Cloudy
8:20 AM 68.0 °F 57.2 °F 68% 29.62 in - South 8.1 mph - N/A   Clear
8:50 AM 69.8 °F 57.2 °F 64% 29.62 in - South 6.9 mph - N/A   Clear
9:20 AM 71.6 °F 57.2 °F 60% 29.62 in - SSW 9.2 mph - N/A   Clear
9:50 AM 71.6 °F 55.4 °F 57% 29.62 in - South 11.5 mph - N/A   Clear
10:20 AM 73.4 °F 55.4 °F 53% 29.62 in - SSW 10.4 mph - N/A   Clear
10:50 AM 73.4 °F 55.4 °F 53% 29.59 in 6.2 mi South 9.2 mph - N/A   Scattered Clouds
11:20 AM 73.4 °F 53.6 °F 50% 29.59 in 6.2 mi SSW 11.5 mph - N/A   Scattered Clouds
11:50 AM 75.2 °F 53.6 °F 47% 29.59 in 6.2 mi SSW 13.8 mph - N/A   Scattered Clouds
12:20 PM 73.4 °F 51.8 °F 47% 29.56 in 6.2 mi SSW 13.8 mph 25.3 mph N/A   Scattered Clouds
12:50 PM 75.2 °F 51.8 °F 44% 29.53 in 6.2 mi SSW 15.0 mph - N/A   Scattered Clouds
1:20 PM 73.4 °F 51.8 °F 47% 29.53 in 6.2 mi SW 19.6 mph 33.4 mph N/A   Scattered Clouds
1:50 PM 68.0 °F 57.2 °F 68% 29.56 in 6.2 mi SW 23.0 mph 36.8 mph N/A Rain Light Rain
2:20 PM 68.0 °F 57.2 °F 68% 29.53 in 6.2 mi WSW 17.3 mph - N/A Rain Light Rain
2:50 PM 68.0 °F 53.6 °F 60% 29.53 in 6.2 mi SW 18.4 mph 35.7 mph N/A   Mostly Cloudy
3:20 PM 68.0 °F 51.8 °F 56% 29.53 in 6.2 mi SW 17.3 mph - N/A   Mostly Cloudy
3:50 PM 68.0 °F 50.0 °F 52% 29.53 in 6.2 mi SW 18.4 mph 29.9 mph N/A   Scattered Clouds
4:20 PM 66.2 °F 48.2 °F 52% 29.56 in 6.2 mi WSW 16.1 mph - N/A   Partly Cloudy
4:50 PM 64.4 °F 50.0 °F 59% 29.56 in 6.2 mi WSW 13.8 mph - N/A   Scattered Clouds
5:20 PM 64.4 °F 48.2 °F 56% 29.56 in 6.2 mi WSW 17.3 mph 33.4 mph N/A   Scattered Clouds
5:50 PM 64.4 °F 50.0 °F 59% 29.56 in 6.2 mi WSW 12.7 mph - N/A   Scattered Clouds
6:20 PM 64.4 °F 50.0 °F 59% 29.59 in 6.2 mi WSW 16.1 mph 27.6 mph N/A   Scattered Clouds
6:50 PM 62.6 °F 48.2 °F 59% 29.59 in 6.2 mi SW 16.1 mph - N/A   Partly Cloudy
7:20 PM 60.8 °F 48.2 °F 63% 29.59 in 6.2 mi WSW 11.5 mph - N/A   Partly Cloudy
7:50 PM 60.8 °F 44.6 °F 55% 29.59 in - WSW 13.8 mph - N/A   Clear
8:20 PM 59.0 °F 44.6 °F 59% 29.59 in - WSW 12.7 mph - N/A   Clear
8:50 PM 59.0 °F 44.6 °F 59% 29.62 in - WSW 12.7 mph - N/A   Clear
9:20 PM 59.0 °F 44.6 °F 59% 29.62 in 6.2 mi WSW 13.8 mph - N/A   Partly Cloudy
9:50 PM 59.0 °F 44.6 °F 59% 29.62 in 6.2 mi WSW 12.7 mph - N/A   Partly Cloudy
10:20 PM 59.0 °F 44.6 °F 59% 29.62 in 6.2 mi SW 11.5 mph - N/A   Partly Cloudy
10:50 PM 59.0 °F 44.6 °F 59% 29.62 in 6.2 mi SW 11.5 mph - N/A   Partly Cloudy
11:20 PM 59.0 °F 42.8 °F 55% 29.62 in 6.2 mi SW 11.5 mph - N/A   Partly Cloudy
11:50 PM 57.2 °F 42.8 °F 59% 29.62 in 6.2 mi SW 12.7 mph - N/A   Partly Cloudy